Maersk Essex — V7WJ2 — position and weather

sailwx.info

Track history (hours):
 
Tides and Currents Weather Stations Pressure Air Temp Water Temp Dewpoint Dewpoint Depression Visibility Wind Speed Wind Dir Waves Ship Positions

Maersk Essex

Last reported at 2017-Nov-25 19:40 UTC. Time now 2018-Jan-19 23:44 UTC.
Position N 41°39' E 141°56'.
Warning: this ship's position is 55 days out of date.

Length 366 m; draft 11.7 m.

Type: Ship (hazmat cat A). MMSI: 538004304.

Date/timePositionNaut miles runAvg speedWind from/ knotsBaromVisibWave heightAir tempDewpointWater temp
2017-Nov-25 19:40N 41°39' E 141°56'922.0
2017-Nov-25 19:15N 41°39' E 141°43'621.7
2017-Nov-25 18:58N 41°38' E 141°35'1222.6
2017-Nov-25 18:25N 41°37' E 141°19'922.3
2017-Nov-25 18:00N 41°37' E 141°06'1224.2
2017-Nov-25 17:30N 41°35' E 140°51'1223.4
2017-Nov-25 17:00N 41°30' E 140°37'1122.5
2017-Nov-25 16:31N 41°25' E 140°23'1122.9
2017-Nov-25 16:00N 41°18' E 140°11'  
2017-Nov-20 00:24N 22°35' E 114°17'0 0.0
2017-Nov-19 23:58N 22°35' E 114°17'0 0.0
2017-Nov-19 23:30N 22°35' E 114°17'0 0.0
2017-Nov-19 23:01N 22°35' E 114°17'0 0.0
2017-Nov-19 22:31N 22°35' E 114°17'0 0.0
2017-Nov-19 22:00N 22°35' E 114°17'0 0.0
2017-Nov-19 21:30N 22°35' E 114°17'0 0.0
2017-Nov-19 21:00N 22°35' E 114°17'0 0.0
2017-Nov-19 20:27N 22°35' E 114°17'0 0.0
2017-Nov-19 19:57N 22°35' E 114°17'0 0.0
2017-Nov-19 19:30N 22°35' E 114°17'0 0.0
2017-Nov-19 19:00N 22°35' E 114°17'0 0.0
2017-Nov-19 18:30N 22°35' E 114°17'0 0.0
2017-Nov-19 18:00N 22°35' E 114°17'0 0.0
2017-Nov-19 17:27N 22°35' E 114°17'0 0.0
2017-Nov-19 17:01N 22°35' E 114°17'0 0.0
2017-Nov-19 16:30N 22°35' E 114°17'0 0.0
2017-Nov-19 16:00N 22°35' E 114°17'0 0.0
2017-Nov-19 15:30N 22°35' E 114°17'0 0.0
2017-Nov-19 15:00N 22°35' E 114°17'0 0.0
2017-Nov-19 14:30N 22°35' E 114°17'0 0.0
2017-Nov-19 14:00N 22°35' E 114°17'0 0.0
2017-Nov-19 13:30N 22°35' E 114°17'0 0.0
2017-Nov-19 13:00N 22°35' E 114°17'0 0.0
2017-Nov-19 12:28N 22°35' E 114°17'0 0.0
2017-Nov-19 12:00N 22°35' E 114°17'0 0.0
2017-Nov-19 11:30N 22°35' E 114°17'0 0.0
2017-Nov-19 11:00N 22°35' E 114°17'0 0.0
2017-Nov-19 10:30N 22°35' E 114°17'0 0.0
2017-Nov-19 10:00N 22°35' E 114°17'0 0.0
2017-Nov-19 09:30N 22°35' E 114°17'0 0.0
2017-Nov-19 09:00N 22°35' E 114°17'0 0.0
2017-Nov-19 08:30N 22°35' E 114°17'0 0.0
2017-Nov-19 08:01N 22°35' E 114°17'0 0.0
2017-Nov-19 07:30N 22°35' E 114°17'0 0.0
2017-Nov-19 07:00N 22°35' E 114°17'0 0.0
2017-Nov-19 06:30N 22°35' E 114°17'0 0.0
2017-Nov-19 06:00N 22°35' E 114°17'0 0.0
2017-Nov-19 05:30N 22°35' E 114°17'0 0.0
2017-Nov-19 05:00N 22°35' E 114°17'0 0.0
2017-Nov-19 04:30N 22°35' E 114°17'0 0.0
2017-Nov-19 04:00N 22°35' E 114°17'0 0.0
2017-Nov-19 03:30N 22°35' E 114°17'0 0.0
2017-Nov-19 03:00N 22°35' E 114°17'0 0.0
2017-Nov-19 02:30N 22°35' E 114°17'0 0.0
2017-Nov-19 02:00N 22°35' E 114°17'0 0.0
2017-Nov-19 01:30N 22°35' E 114°17'0 0.0
2017-Nov-19 01:00N 22°35' E 114°17'0 0.0
2017-Nov-19 00:27N 22°35' E 114°17'0 0.0
2017-Nov-19 00:00N 22°35' E 114°17'0 0.0
2017-Nov-18 23:30N 22°35' E 114°17'0 0.0
2017-Nov-18 23:00N 22°35' E 114°17'0 0.0
2017-Nov-18 22:30N 22°35' E 114°17'1 1.2
2017-Nov-18 22:00N 22°34' E 114°17'4 8.8
2017-Nov-18 21:30N 22°33' E 114°22'612.4
2017-Nov-18 21:00N 22°29' E 114°27'5 9.9
2017-Nov-18 20:30N 22°25' E 114°29'510.6
2017-Nov-18 20:00N 22°21' E 114°33'0 0.2
2017-Nov-18 19:30N 22°21' E 114°33'0 0.1
2017-Nov-18 19:00N 22°21' E 114°33'0 0.0
2017-Nov-18 18:30N 22°21' E 114°33'0 0.0
2017-Nov-18 18:00N 22°21' E 114°33'0 0.1
2017-Nov-18 17:27N 22°21' E 114°33'0 0.1
2017-Nov-18 17:00N 22°21' E 114°33'0 0.2
2017-Nov-18 16:30N 22°21' E 114°33'0 0.2
2017-Nov-18 15:57N 22°21' E 114°33'2 4.7
2017-Nov-18 15:30N 22°19' E 114°32'611.8
2017-Nov-18 15:00N 22°14' E 114°29'815.1
2017-Nov-18 14:31N 22°08' E 114°24'714.0
2017-Nov-18 14:00N 22°06' E 114°17'7 8.4
2017-Nov-18 13:07N 22°12' E 114°11'111.6
2017-Nov-18 13:00N 22°13' E 114°10'7 0.4
2017-Nov-17 18:30N 22°18' E 114°06'3 6.9
2017-Nov-17 18:00N 22°15' E 114°07'510.2
2017-Nov-17 17:30N 22°12' E 114°11'5 9.8
2017-Nov-17 17:00N 22°08' E 114°15'3 5.9
2017-Nov-17 16:30N 22°07' E 114°12'510.9
2017-Nov-17 16:00N 22°07' E 114°06'612.2
2017-Nov-17 15:30N 22°07' E 113°59'4 6.6
2017-Nov-17 14:53N 22°06' E 113°55'0 0.0
2017-Nov-17 11:23N 22°06' E 113°55'0 0.1
2017-Nov-17 10:21N 22°06' E 113°55'3 8.2
2017-Nov-17 10:00N 22°06' E 113°52'611.3
2017-Nov-17 09:30N 22°12' E 113°49'816.3
2017-Nov-17 09:00N 22°20' E 113°48'714.6
2017-Nov-17 08:30N 22°26' E 113°45'714.9
2017-Nov-17 08:00N 22°34' E 113°43'510.3
2017-Nov-17 07:30N 22°39' E 113°41'0 0.5
2017-Nov-17 06:55N 22°38' E 113°41'0 0.0
2017-Nov-17 06:25N 22°38' E 113°41'0 0.0
2017-Nov-17 05:46N 22°38' E 113°41'0 0.0
2017-Nov-17 05:22N 22°38' E 113°41'0 0.0
2017-Nov-17 04:58N 22°38' E 113°41'0 0.0
2017-Nov-17 04:19N 22°38' E 113°41'0 0.0
2017-Nov-17 03:49N 22°38' E 113°41'0 0.0
2017-Nov-17 03:19N 22°38' E 113°41'0 0.0
2017-Nov-17 02:22N 22°38' E 113°41'0 0.0
2017-Nov-17 01:55N 22°38' E 113°41'0 0.0
2017-Nov-16 23:01N 22°38' E 113°41'0 0.0
2017-Nov-16 22:34N 22°38' E 113°41'0 0.0
2017-Nov-16 22:25N 22°38' E 113°41'0 0.0
2017-Nov-16 21:58N 22°38' E 113°41'0 0.0
2017-Nov-16 21:28N 22°38' E 113°41'0 0.0
2017-Nov-16 20:55N 22°38' E 113°41'0 0.0
2017-Nov-16 20:25N 22°38' E 113°41'0 0.0
2017-Nov-16 19:10N 22°38' E 113°41'0 0.0
2017-Nov-16 18:13N 22°38' E 113°41'0 0.0
2017-Nov-16 17:58N 22°38' E 113°41'0 0.0
2017-Nov-16 15:27N 22°38' E 113°41'1 1.3
2017-Nov-16 15:00N 22°38' E 113°41'510.2
2017-Nov-16 14:30N 22°33' E 113°43'612.2
2017-Nov-16 14:00N 22°28' E 113°45'815.0
2017-Nov-16 13:29N 22°20' E 113°48'815.8
2017-Nov-16 13:00N 22°13' E 113°49'813.7
2017-Nov-16 12:27N 22°05' E 113°51'613.1
2017-Nov-16 12:01N 21°59' E 113°51'814.7
2017-Nov-16 11:29N 21°52' E 113°50'  
Track history (hours):
 
Tides and Currents Weather Stations Pressure Air Temp Water Temp Dewpoint Dewpoint Depression Visibility Wind Speed Wind Dir Waves Ship Positions

Maersk Essex

Last reported at 2017-Nov-25 19:40 UTC. Time now 2018-Jan-19 23:44 UTC.
Position N 41°39' E 141°56'.
Warning: this ship's position is 55 days out of date.

Length 366 m; draft 11.7 m.

Type: Ship (hazmat cat A). MMSI: 538004304.

Date/timePositionNaut miles runAvg speedWind from/ knotsBaromVisibWave heightAir tempDewpointWater temp
2017-Nov-25 19:40N 41°39' E 141°56'922.0
2017-Nov-25 19:15N 41°39' E 141°43'621.7
2017-Nov-25 18:58N 41°38' E 141°35'1222.6
2017-Nov-25 18:25N 41°37' E 141°19'922.3
2017-Nov-25 18:00N 41°37' E 141°06'1224.2
2017-Nov-25 17:30N 41°35' E 140°51'1223.4
2017-Nov-25 17:00N 41°30' E 140°37'1122.5
2017-Nov-25 16:31N 41°25' E 140°23'1122.9
2017-Nov-25 16:00N 41°18' E 140°11'  
2017-Nov-20 00:24N 22°35' E 114°17'0 0.0
2017-Nov-19 23:58N 22°35' E 114°17'0 0.0
2017-Nov-19 23:30N 22°35' E 114°17'0 0.0
2017-Nov-19 23:01N 22°35' E 114°17'0 0.0
2017-Nov-19 22:31N 22°35' E 114°17'0 0.0
2017-Nov-19 22:00N 22°35' E 114°17'0 0.0
2017-Nov-19 21:30N 22°35' E 114°17'0 0.0
2017-Nov-19 21:00N 22°35' E 114°17'0 0.0
2017-Nov-19 20:27N 22°35' E 114°17'0 0.0
2017-Nov-19 19:57N 22°35' E 114°17'0 0.0
2017-Nov-19 19:30N 22°35' E 114°17'0 0.0
2017-Nov-19 19:00N 22°35' E 114°17'0 0.0
2017-Nov-19 18:30N 22°35' E 114°17'0 0.0
2017-Nov-19 18:00N 22°35' E 114°17'0 0.0
2017-Nov-19 17:27N 22°35' E 114°17'0 0.0
2017-Nov-19 17:01N 22°35' E 114°17'0 0.0
2017-Nov-19 16:30N 22°35' E 114°17'0 0.0
2017-Nov-19 16:00N 22°35' E 114°17'0 0.0
2017-Nov-19 15:30N 22°35' E 114°17'0 0.0
2017-Nov-19 15:00N 22°35' E 114°17'0 0.0
2017-Nov-19 14:30N 22°35' E 114°17'0 0.0
2017-Nov-19 14:00N 22°35' E 114°17'0 0.0
2017-Nov-19 13:30N 22°35' E 114°17'0 0.0
2017-Nov-19 13:00N 22°35' E 114°17'0 0.0
2017-Nov-19 12:28N 22°35' E 114°17'0 0.0
2017-Nov-19 12:00N 22°35' E 114°17'0 0.0
2017-Nov-19 11:30N 22°35' E 114°17'0 0.0
2017-Nov-19 11:00N 22°35' E 114°17'0 0.0
2017-Nov-19 10:30N 22°35' E 114°17'0 0.0
2017-Nov-19 10:00N 22°35' E 114°17'0 0.0
2017-Nov-19 09:30N 22°35' E 114°17'0 0.0
2017-Nov-19 09:00N 22°35' E 114°17'0 0.0
2017-Nov-19 08:30N 22°35' E 114°17'0 0.0
2017-Nov-19 08:01N 22°35' E 114°17'0 0.0
2017-Nov-19 07:30N 22°35' E 114°17'0 0.0
2017-Nov-19 07:00N 22°35' E 114°17'0 0.0
2017-Nov-19 06:30N 22°35' E 114°17'0 0.0
2017-Nov-19 06:00N 22°35' E 114°17'0 0.0
2017-Nov-19 05:30N 22°35' E 114°17'0 0.0
2017-Nov-19 05:00N 22°35' E 114°17'0 0.0
2017-Nov-19 04:30N 22°35' E 114°17'0 0.0
2017-Nov-19 04:00N 22°35' E 114°17'0 0.0
2017-Nov-19 03:30N 22°35' E 114°17'0 0.0
2017-Nov-19 03:00N 22°35' E 114°17'0 0.0
2017-Nov-19 02:30N 22°35' E 114°17'0 0.0
2017-Nov-19 02:00N 22°35' E 114°17'0 0.0
2017-Nov-19 01:30N 22°35' E 114°17'0 0.0
2017-Nov-19 01:00N 22°35' E 114°17'0 0.0
2017-Nov-19 00:27N 22°35' E 114°17'0 0.0
2017-Nov-19 00:00N 22°35' E 114°17'0 0.0
2017-Nov-18 23:30N 22°35' E 114°17'0 0.0
2017-Nov-18 23:00N 22°35' E 114°17'0 0.0
2017-Nov-18 22:30N 22°35' E 114°17'1 1.2
2017-Nov-18 22:00N 22°34' E 114°17'4 8.8
2017-Nov-18 21:30N 22°33' E 114°22'612.4
2017-Nov-18 21:00N 22°29' E 114°27'5 9.9
2017-Nov-18 20:30N 22°25' E 114°29'510.6
2017-Nov-18 20:00N 22°21' E 114°33'0 0.2
2017-Nov-18 19:30N 22°21' E 114°33'0 0.1
2017-Nov-18 19:00N 22°21' E 114°33'0 0.0
2017-Nov-18 18:30N 22°21' E 114°33'0 0.0
2017-Nov-18 18:00N 22°21' E 114°33'0 0.1
2017-Nov-18 17:27N 22°21' E 114°33'0 0.1
2017-Nov-18 17:00N 22°21' E 114°33'0 0.2
2017-Nov-18 16:30N 22°21' E 114°33'0 0.2
2017-Nov-18 15:57N 22°21' E 114°33'2 4.7
2017-Nov-18 15:30N 22°19' E 114°32'611.8
2017-Nov-18 15:00N 22°14' E 114°29'815.1
2017-Nov-18 14:31N 22°08' E 114°24'714.0
2017-Nov-18 14:00N 22°06' E 114°17'7 8.4
2017-Nov-18 13:07N 22°12' E 114°11'111.6
2017-Nov-18 13:00N 22°13' E 114°10'7 0.4
2017-Nov-17 18:30N 22°18' E 114°06'3 6.9
2017-Nov-17 18:00N 22°15' E 114°07'510.2
2017-Nov-17 17:30N 22°12' E 114°11'5 9.8
2017-Nov-17 17:00N 22°08' E 114°15'3 5.9
2017-Nov-17 16:30N 22°07' E 114°12'510.9
2017-Nov-17 16:00N 22°07' E 114°06'612.2
2017-Nov-17 15:30N 22°07' E 113°59'4 6.6
2017-Nov-17 14:53N 22°06' E 113°55'0 0.0
2017-Nov-17 11:23N 22°06' E 113°55'0 0.1
2017-Nov-17 10:21N 22°06' E 113°55'3 8.2
2017-Nov-17 10:00N 22°06' E 113°52'611.3
2017-Nov-17 09:30N 22°12' E 113°49'816.3
2017-Nov-17 09:00N 22°20' E 113°48'714.6
2017-Nov-17 08:30N 22°26' E 113°45'714.9
2017-Nov-17 08:00N 22°34' E 113°43'510.3
2017-Nov-17 07:30N 22°39' E 113°41'0 0.5
2017-Nov-17 06:55N 22°38' E 113°41'0 0.0
2017-Nov-17 06:25N 22°38' E 113°41'0 0.0
2017-Nov-17 05:46N 22°38' E 113°41'0 0.0
2017-Nov-17 05:22N 22°38' E 113°41'0 0.0
2017-Nov-17 04:58N 22°38' E 113°41'0 0.0
2017-Nov-17 04:19N 22°38' E 113°41'0 0.0
2017-Nov-17 03:49N 22°38' E 113°41'0 0.0
2017-Nov-17 03:19N 22°38' E 113°41'0 0.0
2017-Nov-17 02:22N 22°38' E 113°41'0 0.0
2017-Nov-17 01:55N 22°38' E 113°41'0 0.0
2017-Nov-16 23:01N 22°38' E 113°41'0 0.0
2017-Nov-16 22:34N 22°38' E 113°41'0 0.0
2017-Nov-16 22:25N 22°38' E 113°41'0 0.0
2017-Nov-16 21:58N 22°38' E 113°41'0 0.0
2017-Nov-16 21:28N 22°38' E 113°41'0 0.0
2017-Nov-16 20:55N 22°38' E 113°41'0 0.0
2017-Nov-16 20:25N 22°38' E 113°41'0 0.0
2017-Nov-16 19:10N 22°38' E 113°41'0 0.0
2017-Nov-16 18:13N 22°38' E 113°41'0 0.0
2017-Nov-16 17:58N 22°38' E 113°41'0 0.0
2017-Nov-16 15:27N 22°38' E 113°41'1 1.3
2017-Nov-16 15:00N 22°38' E 113°41'510.2
2017-Nov-16 14:30N 22°33' E 113°43'612.2
2017-Nov-16 14:00N 22°28' E 113°45'815.0
2017-Nov-16 13:29N 22°20' E 113°48'815.8
2017-Nov-16 13:00N 22°13' E 113°49'813.7
2017-Nov-16 12:27N 22°05' E 113°51'613.1
2017-Nov-16 12:01N 21°59' E 113°51'814.7
2017-Nov-16 11:29N 21°52' E 113°50'  

Dump ship's entire track history